Time,TemperatureF,DewpointF,PressureIn,WindDirection,WindDirectionDegrees,WindSpeedMPH,WindSpeedGustMPH,Humidity,HourlyPrecipIn,Conditions,Clouds,dailyrainin,SoftwareType,DateUTC
2013-02-25 00:08:00,30.4,21.1,30.15,ENE,67,0.0,-999.0,68,-99.99,,,0.00,Acu-Link.com,2013-02-25 05:08:00,
2013-02-25 00:23:00,30.2,21.3,30.15,WNW,292,0.0,-999.0,69,-99.99,,,0.00,Acu-Link.com,2013-02-25 05:23:00,
2013-02-25 00:38:00,30.4,21.1,30.15,NNW,337,4.7,-999.0,68,-99.99,,,0.00,Acu-Link.com,2013-02-25 05:38:00,
2013-02-25 00:54:00,30.7,21.1,30.15,NE,45,1.7,-999.0,67,-99.99,,,0.00,Acu-Link.com,2013-02-25 05:54:00,
2013-02-25 01:09:00,30.0,21.1,30.15,NW,315,1.7,-999.0,69,-99.99,,,0.00,Acu-Link.com,2013-02-25 06:09:00,
2013-02-25 01:24:00,29.1,20.6,30.16,West,270,1.7,-999.0,70,-99.99,,,0.00,Acu-Link.com,2013-02-25 06:24:00,
2013-02-25 01:39:00,29.3,21.1,30.16,West,270,0.0,-999.0,71,-99.99,,,0.00,Acu-Link.com,2013-02-25 06:39:00,
2013-02-25 01:54:00,29.1,21.2,30.15,SSW,202,1.1,-999.0,72,-99.99,,,0.00,Acu-Link.com,2013-02-25 06:54:00,
2013-02-25 02:10:00,28.6,20.7,30.16,North,0,0.0,-999.0,72,-99.99,,,0.00,Acu-Link.com,2013-02-25 07:10:00,
2013-02-25 02:25:00,28.8,20.9,30.16,NNE,22,1.1,-999.0,72,-99.99,,,0.00,Acu-Link.com,2013-02-25 07:25:00,
2013-02-25 02:40:00,28.0,20.8,30.16,East,90,0.0,-999.0,74,-99.99,,,0.00,Acu-Link.com,2013-02-25 07:40:00,
2013-02-25 02:55:00,28.4,20.5,30.16,West,270,1.1,-999.0,72,-99.99,,,0.00,Acu-Link.com,2013-02-25 07:55:00,
2013-02-25 03:11:00,28.0,20.8,30.16,North,0,1.1,-999.0,74,-99.99,,,0.00,Acu-Link.com,2013-02-25 08:11:00,
2013-02-25 03:26:00,27.3,20.8,30.15,ESE,112,0.0,-999.0,76,-99.99,,,0.00,Acu-Link.com,2013-02-25 08:26:00,
2013-02-25 03:41:00,26.4,20.5,30.15,NW,315,0.0,-999.0,78,-99.99,,,0.00,Acu-Link.com,2013-02-25 08:41:00,
2013-02-25 03:56:00,25.5,20.5,30.16,NNW,337,0.0,-999.0,81,-99.99,,,0.00,Acu-Link.com,2013-02-25 08:56:00,
2013-02-25 04:17:00,25.9,20.9,30.16,SSE,157,0.0,-999.0,81,-99.99,,,0.00,Acu-Link.com,2013-02-25 09:17:00,
2013-02-25 04:32:00,26.4,20.5,30.16,NW,315,0.0,-999.0,78,-99.99,,,0.00,Acu-Link.com,2013-02-25 09:32:00,
2013-02-25 04:47:00,26.2,20.9,30.17,NE,45,0.0,-999.0,80,-99.99,,,0.00,Acu-Link.com,2013-02-25 09:47:00,
2013-02-25 05:02:00,25.0,20.6,30.16,ENE,67,0.0,-999.0,83,-99.99,,,0.00,Acu-Link.com,2013-02-25 10:02:00,
2013-02-25 05:18:00,24.1,19.7,30.17,ESE,112,0.0,-999.0,83,-99.99,,,0.00,Acu-Link.com,2013-02-25 10:18:00,
2013-02-25 05:33:00,23.7,19.9,30.16,ENE,67,0.0,-999.0,85,-99.99,,,0.00,Acu-Link.com,2013-02-25 10:33:00,
2013-02-25 05:48:00,23.9,20.1,30.18,WSW,247,1.1,-999.0,85,-99.99,,,0.00,Acu-Link.com,2013-02-25 10:48:00,
2013-02-25 06:03:00,24.6,20.5,30.18,NNW,337,1.7,-999.0,84,-99.99,,,0.00,Acu-Link.com,2013-02-25 11:03:00,
2013-02-25 06:18:00,23.9,19.8,30.17,WNW,292,0.0,-999.0,84,-99.99,,,0.00,Acu-Link.com,2013-02-25 11:18:00,
2013-02-25 06:33:00,23.2,19.9,30.18,ENE,67,0.0,-999.0,87,-99.99,,,0.00,Acu-Link.com,2013-02-25 11:33:00,
2013-02-25 06:49:00,22.8,20.1,30.19,ESE,112,0.0,-999.0,89,-99.99,,,0.00,Acu-Link.com,2013-02-25 11:49:00,
2013-02-25 07:04:00,24.1,21.6,30.19,ESE,112,0.0,-999.0,90,-99.99,,,0.00,Acu-Link.com,2013-02-25 12:04:00,
2013-02-25 07:19:00,28.9,22.6,30.18,ESE,112,0.0,-999.0,77,-99.99,,,0.00,Acu-Link.com,2013-02-25 12:19:00,
2013-02-25 07:34:00,32.5,22.8,30.17,NNE,22,2.7,-999.0,67,-99.99,,,0.00,Acu-Link.com,2013-02-25 12:34:00,
2013-02-25 07:50:00,35.1,23.8,30.19,WSW,247,1.7,-999.0,63,-99.99,,,0.00,Acu-Link.com,2013-02-25 12:50:00,
2013-02-25 08:05:00,36.7,24.1,30.18,SE,135,1.7,-999.0,60,-99.99,,,0.00,Acu-Link.com,2013-02-25 13:05:00,
2013-02-25 08:20:00,33.3,22.1,30.18,NW,315,3.7,-999.0,63,-99.99,,,0.00,Acu-Link.com,2013-02-25 13:20:00,
2013-02-25 08:35:00,34.0,22.7,30.18,North,0,3.2,-999.0,63,-99.99,,,0.00,Acu-Link.com,2013-02-25 13:35:00,
2013-02-25 08:50:00,34.9,23.2,30.19,NNW,337,3.2,-999.0,62,-99.99,,,0.00,Acu-Link.com,2013-02-25 13:50:00,
2013-02-25 09:06:00,37.0,23.6,30.20,ESE,112,1.1,-999.0,58,-99.99,,,0.00,Acu-Link.com,2013-02-25 14:06:00,
2013-02-25 09:21:00,37.9,24.0,30.19,North,0,2.7,-999.0,57,-99.99,,,0.00,Acu-Link.com,2013-02-25 14:21:00,
2013-02-25 09:51:00,39.7,24.4,30.19,ESE,112,2.7,-999.0,54,-99.99,,,0.00,Acu-Link.com,2013-02-25 14:51:00,
2013-02-25 10:06:00,40.8,25.5,30.19,NE,45,8.3,-999.0,54,-99.99,,,0.00,Acu-Link.com,2013-02-25 15:06:00,
2013-02-25 10:22:00,40.8,25.0,30.20,NE,45,5.8,-999.0,53,-99.99,,,0.00,Acu-Link.com,2013-02-25 15:22:00,
2013-02-25 10:37:00,41.0,25.6,30.19,NW,315,4.7,-999.0,54,-99.99,,,0.00,Acu-Link.com,2013-02-25 15:37:00,
2013-02-25 10:52:00,42.6,26.2,30.19,NE,45,6.8,-999.0,52,-99.99,,,0.00,Acu-Link.com,2013-02-25 15:52:00,
2013-02-25 11:07:00,42.4,26.0,30.20,NW,315,4.7,-999.0,52,-99.99,,,0.00,Acu-Link.com,2013-02-25 16:07:00,
2013-02-25 11:22:00,43.0,26.1,30.20,ESE,112,6.3,-999.0,51,-99.99,,,0.00,Acu-Link.com,2013-02-25 16:22:00,
2013-02-25 11:38:00,43.7,26.3,30.20,WNW,292,2.2,-999.0,50,-99.99,,,0.00,Acu-Link.com,2013-02-25 16:38:00,
2013-02-25 11:53:00,44.1,26.7,30.19,NNE,22,2.2,-999.0,50,-99.99,,,0.00,Acu-Link.com,2013-02-25 16:53:00,
2013-02-25 12:08:00,42.6,25.3,30.19,NE,45,2.2,-999.0,50,-99.99,,,0.00,Acu-Link.com,2013-02-25 17:08:00,
2013-02-25 12:23:00,44.4,26.9,30.19,South,180,1.7,-999.0,50,-99.99,,,0.00,Acu-Link.com,2013-02-25 17:23:00,
2013-02-25 12:38:00,43.3,25.4,30.19,NE,45,2.7,-999.0,49,-99.99,,,0.00,Acu-Link.com,2013-02-25 17:38:00,
2013-02-25 12:54:00,45.0,26.5,30.19,ESE,112,2.2,-999.0,48,-99.99,,,0.00,Acu-Link.com,2013-02-25 17:54:00,
2013-02-25 13:09:00,45.0,26.0,30.18,SSE,157,0.0,-999.0,47,-99.99,,,0.00,Acu-Link.com,2013-02-25 18:09:00,
2013-02-25 13:24:00,45.1,26.1,30.17,SW,225,0.0,-999.0,47,-99.99,,,0.00,Acu-Link.com,2013-02-25 18:24:00,
2013-02-25 13:39:00,45.0,24.4,30.17,NNW,337,0.0,-999.0,44,-99.99,,,0.00,Acu-Link.com,2013-02-25 18:39:00,
2013-02-25 13:54:00,45.1,26.1,30.17,WNW,292,3.2,-999.0,47,-99.99,,,0.00,Acu-Link.com,2013-02-25 18:54:00,
2013-02-25 14:10:00,45.3,26.3,30.17,WNW,292,3.7,-999.0,47,-99.99,,,0.00,Acu-Link.com,2013-02-25 19:10:00,
2013-02-25 14:25:00,45.1,25.6,30.17,NW,315,2.2,-999.0,46,-99.99,,,0.00,Acu-Link.com,2013-02-25 19:25:00,
2013-02-25 14:40:00,44.4,25.4,30.16,West,270,1.1,-999.0,47,-99.99,,,0.00,Acu-Link.com,2013-02-25 19:40:00,
2013-02-25 14:55:00,45.3,26.3,30.15,NNE,22,0.0,-999.0,47,-99.99,,,0.00,Acu-Link.com,2013-02-25 19:55:00,
2013-02-25 15:11:00,45.3,27.3,30.16,NNE,22,0.0,-999.0,49,-99.99,,,0.00,Acu-Link.com,2013-02-25 20:11:00,
2013-02-25 15:26:00,44.2,25.3,30.15,East,90,2.2,-999.0,47,-99.99,,,0.00,Acu-Link.com,2013-02-25 20:26:00,
2013-02-25 15:41:00,44.6,24.6,30.15,WSW,247,0.0,-999.0,45,-99.99,,,0.00,Acu-Link.com,2013-02-25 20:41:00,
2013-02-25 15:56:00,44.4,24.9,30.15,NNW,337,0.0,-999.0,46,-99.99,,,0.00,Acu-Link.com,2013-02-25 20:56:00,
2013-02-25 16:11:00,44.1,24.7,30.14,North,0,2.7,-999.0,46,-99.99,,,0.00,Acu-Link.com,2013-02-25 21:11:00,
2013-02-25 16:27:00,43.7,25.3,30.14,SE,135,0.0,-999.0,48,-99.99,,,0.00,Acu-Link.com,2013-02-25 21:27:00,
2013-02-25 16:42:00,43.7,25.3,30.15,WNW,292,0.0,-999.0,48,-99.99,,,0.00,Acu-Link.com,2013-02-25 21:42:00,
2013-02-25 16:57:00,43.5,25.6,30.14,NW,315,0.0,-999.0,49,-99.99,,,0.00,Acu-Link.com,2013-02-25 21:57:00,
2013-02-25 17:12:00,44.2,25.8,30.15,NE,45,0.0,-999.0,48,-99.99,,,0.00,Acu-Link.com,2013-02-25 22:12:00,
2013-02-25 17:27:00,45.1,28.1,30.15,SSE,157,0.0,-999.0,51,-99.99,,,0.00,Acu-Link.com,2013-02-25 22:27:00,
2013-02-25 17:43:00,41.9,27.8,30.16,NNW,337,0.0,-999.0,57,-99.99,,,0.00,Acu-Link.com,2013-02-25 22:43:00,
2013-02-25 17:58:00,39.0,27.9,30.16,SE,135,0.0,-999.0,64,-99.99,,,0.00,Acu-Link.com,2013-02-25 22:58:00,
2013-02-25 18:13:00,37.4,26.4,30.17,ESE,112,0.0,-999.0,64,-99.99,,,0.00,Acu-Link.com,2013-02-25 23:13:00,
2013-02-25 18:28:00,36.0,26.5,30.17,SE,135,0.0,-999.0,68,-99.99,,,0.00,Acu-Link.com,2013-02-25 23:28:00,
2013-02-25 18:43:00,35.1,25.6,30.17,NNE,22,0.0,-999.0,68,-99.99,,,0.00,Acu-Link.com,2013-02-25 23:43:00,
2013-02-25 18:59:00,33.4,25.7,30.17,East,90,0.0,-999.0,73,-99.99,,,0.00,Acu-Link.com,2013-02-25 23:59:00,
2013-02-25 19:14:00,32.5,25.5,30.17,SSE,157,0.0,-999.0,75,-99.99,,,0.00,Acu-Link.com,2013-02-26 00:14:00,
2013-02-25 19:29:00,31.3,25.3,30.19,SW,225,0.0,-999.0,78,-99.99,,,0.00,Acu-Link.com,2013-02-26 00:29:00,
2013-02-25 19:44:00,30.4,25.9,30.19,SSE,157,0.0,-999.0,83,-99.99,,,0.00,Acu-Link.com,2013-02-26 00:44:00,
2013-02-25 20:00:00,29.1,25.4,30.20,West,270,0.0,-999.0,86,-99.99,,,0.00,Acu-Link.com,2013-02-26 01:00:00,
2013-02-25 20:15:00,28.6,25.2,30.20,ESE,112,0.0,-999.0,87,-99.99,,,0.00,Acu-Link.com,2013-02-26 01:15:00,
2013-02-25 20:30:00,28.0,25.5,30.20,South,180,0.0,-999.0,90,-99.99,,,0.00,Acu-Link.com,2013-02-26 01:30:00,
2013-02-25 20:45:00,27.5,25.0,30.20,ESE,112,0.0,-999.0,90,-99.99,,,0.00,Acu-Link.com,2013-02-26 01:45:00,
2013-02-25 21:00:00,27.1,25.1,30.20,WSW,247,0.0,-999.0,92,-99.99,,,0.00,Acu-Link.com,2013-02-26 02:00:00,
2013-02-25 21:16:00,26.6,24.3,30.20,SE,135,0.0,-999.0,91,-99.99,,,0.00,Acu-Link.com,2013-02-26 02:16:00,
2013-02-25 21:31:00,26.1,23.8,30.19,South,180,0.0,-999.0,91,-99.99,,,0.00,Acu-Link.com,2013-02-26 02:31:00,
2013-02-25 21:46:00,25.5,23.8,30.18,NW,315,0.0,-999.0,93,-99.99,,,0.00,Acu-Link.com,2013-02-26 02:46:00,
2013-02-25 22:01:00,25.3,23.6,30.19,SW,225,0.0,-999.0,93,-99.99,,,0.00,Acu-Link.com,2013-02-26 03:01:00,
2013-02-25 22:16:00,25.0,23.8,30.18,ENE,67,0.0,-999.0,95,-99.99,,,0.00,Acu-Link.com,2013-02-26 03:16:00,
2013-02-25 22:32:00,25.0,23.5,30.18,NE,45,0.0,-999.0,94,-99.99,,,0.00,Acu-Link.com,2013-02-26 03:32:00,
2013-02-25 22:47:00,24.6,23.1,30.17,West,270,0.0,-999.0,94,-99.99,,,0.00,Acu-Link.com,2013-02-26 03:47:00,
2013-02-25 23:02:00,24.4,23.2,30.17,East,90,0.0,-999.0,95,-99.99,,,0.00,Acu-Link.com,2013-02-26 04:02:00,
2013-02-25 23:17:00,24.8,24.3,30.17,NE,45,0.0,-999.0,98,-99.99,,,0.00,Acu-Link.com,2013-02-26 04:17:00,
2013-02-25 23:32:00,24.3,23.3,30.17,NNW,337,0.0,-999.0,96,-99.99,,,0.00,Acu-Link.com,2013-02-26 04:32:00,
2013-02-25 23:48:00,24.4,23.9,30.16,SE,135,0.0,-999.0,98,-99.99,,,0.00,Acu-Link.com,2013-02-26 04:48:00,